Temperature
9 9 9 9 9 9 9 9 9 9 9 9 9 9 9 9 9 9 10 10 10 10 10 10 10 10 10 10 10 10 11 11 11 11 11 11 11 11 11 11 11 11 11
8 8 8 8 8 8 8 8 8 8 8 8 8 8 8 8 9 9 9 9 9 10 10 10 10 10 10 10 10 10 10 10 10 10 10 10 10 11 11 11 11 11 11
7 7 7 7 7 7 7 8 8 8 8 8 8 8 8 8 8 8 9 9 9 9 9 9 9 9 9 9 9 10 10 10 10 10 10 10 10 10 10 10 10 10 11
6 7 7 7 7 7 7 7 7 7 7 7 7 7 7 7 8 8 8 8 8 9 9 9 9 9 9 9 9 9 9 9 9 9 9 10 10 10 10 10 10 10 10
6 6 6 6 6 6 6 6 6 6 6 6 7 7 7 7 7 7 7 7 8 8 8 8 8 9 9 8 9 9 9 9 9 9 9 9 9 9 9 10 10 10 10
5 5 5 6 6 6 6 6 6 6 6 6 6 6 6 6 6 7 7 7 7 7 7 7 8 8 8 8 8 8 8 8 8 8 8 9 9 9 9 9 9 9 9
5 5 5 5 5 5 5 5 5 5 5 5 5 6 6 6 6 6 6 6 7 7 7 7 7 7 7 8 8 8 8 8 8 8 8 8 8 8 8 9 9 9 9
4 4 4 4 4 4 4 4 4 4 5 4 4 4 5 5 5 6 6 6 6 6 6 6 6 6 7 7 7 7 7 7 7 7 7 8 8 8 8 8 8 9 9
3 3 3 3 4 4 4 4 4 4 4 4 4 3 4 4 4 4 5 5 5 5 5 6 6 6 6 6 6 7 7 7 7 7 7 7 7 8 8 8 8 8 8
2 2 3 3 3 3 3 3 3 3 3 3 3 3 3 3 3 3 4 4 4 5 5 5 5 5 5 6 6 6 6 6 6 7 7 7 7 7 7 7 8 8 8
2 2 2 2 2 2 2 2 2 2 3 2 3 2 3 2 2 2 3 3 4 4 4 4 4 5 5 5 5 5 5 6 6 6 6 6 6 6 7 7 7 7 7
1 1 1 1 1 2 2 2 2 2 2 2 2 2 2 2 2 2 2 2 3 3 4 4 4 4 4 4 5 5 5 5 5 5 5 6 6 6 6 6 6 7 7
0 0 0 1 1 1 1 1 1 1 1 1 1 1 1 1 1 1 1 1 1 2 3 3 3 3 3 4 4 4 4 4 4 5 5 5 5 5 6 6 6 6 6
-1 -0 -0 -0 -0 -0 0 0 0 0 0 0 0 0 0 0 0 0 0 0 0 0 1 2 2 3 3 3 3 3 4 4 4 4 4 4 5 5 5 5 5 6 6
-2 -1 -1 -1 -1 -1 -1 -1 -0 -0 -0 -0 -0 -0 -0 -0 -1 -0 -0 -0 -1 -1 -0 1 1 2 2 2 2 3 3 3 3 3 4 4 4 4 4 4 5 5 5
-3 -2 -2 -2 -1 -1 -1 -1 -1 -1 -1 -1 -1 -1 -1 -1 -1 -1 -1 -1 -1 -1 -1 -0 0 1 1 1 1 2 2 2 3 3 3 3 3 4 4 4 4 4 5
-3 -3 -3 -3 -2 -2 -2 -2 -2 -2 -2 -2 -2 -1 -1 -1 -1 -1 -1 -1 -1 -2 -2 -1 -1 -0 0 0 1 1 1 1 2 2 2 2 3 3 3 3 3 4 4
-4 -4 -4 -3 -3 -3 -3 -3 -3 -3 -2 -2 -2 -2 -2 -2 -2 -2 -2 -2 -2 -2 -2 -2 -1 -1 -1 -0 -0 0 0 1 1 1 1 2 2 2 2 2 2 3 3
-5 -4 -4 -4 -4 -4 -4 -4 -4 -3 -3 -3 -3 -3 -3 -3 -2 -2 -2 -2 -2 -3 -3 -3 -2 -2 -2 -1 -1 -1 -0 -0 0 1 1 1 1 1 2 2 2 2 2
-5 -5 -5 -5 -5 -5 -5 -5 -4 -4 -4 -4 -4 -3 -3 -3 -3 -3 -3 -3 -3 -3 -3 -3 -3 -3 -2 -2 -2 -2 -1 -1 -1 -0 -0 0 1 1 1 1 1 1 2
-6 -6 -6 -6 -6 -6 -5 -5 -5 -5 -5 -5 -4 -4 -4 -4 -4 -4 -4 -4 -4 -4 -4 -4 -4 -3 -3 -3 -3 -3 -2 -2 -2 -1 -1 -0 -0 0 0 0 1 1 1
-7 -7 -7 -6 -6 -6 -6 -6 -6 -6 -6 -5 -5 -5 -5 -4 -4 -4 -4 -4 -4 -4 -4 -4 -4 -4 -4 -3 -3 -3 -3 -3 -3 -2 -2 -1 -1 -1 -0 -0 0 0 0
-7 -7 -7 -7 -7 -7 -7 -7 -7 -7 -6 -6 -6 -6 -5 -5 -5 -5 -5 -5 -5 -5 -5 -5 -5 -4 -4 -4 -4 -4 -4 -4 -3 -3 -3 -2 -2 -1 -1 -1 -1 -1 -0
-8 -8 -8 -8 -8 -7 -8 -8 -7 -7 -7 -7 -7 -6 -6 -6 -6 -6 -6 -6 -5 -5 -5 -5 -5 -5 -5 -4 -4 -4 -4 -4 -4 -4 -3 -3 -2 -2 -2 -1 -1 -1 -1
-8 -8 -8 -8 -8 -8 -8 -8 -8 -8 -8 -8 -7 -7 -7 -7 -7 -7 -7 -6 -6 -6 -6 -6 -5 -5 -5 -5 -5 -5 -5 -5 -5 -4 -4 -4 -3 -3 -3 -2 -2 -2 -2
-9 -9 -9 -9 -9 -9 -9 -9 -9 -9 -9 -8 -8 -8 -8 -8 -8 -7 -7 -7 -7 -6 -6 -6 -6 -6 -6 -5 -5 -5 -5 -5 -5 -5 -5 -5 -4 -4 -4 -3 -3 -3 -3
Wind_Speed
4 5 5 5 6 6 6 5 5 5 5 5 5 4 4 4 4 4 4 5 4 2 1 1 1 2 3 4 4 4 3 3 4 3 3 4 4 4 4 4 4 5 6
4 4 4 4 5 5 4 4 4 3 3 4 4 4 4 4 4 4 3 4 4 4 2 0 0 1 2 3 4 4 4 4 4 4 4 3 3 3 3 3 3 3 5
3 3 3 3 4 4 4 4 4 4 3 3 3 4 3 3 3 4 3 3 3 4 3 1 1 1 1 3 4 4 3 4 3 4 4 3 3 3 3 2 2 2 4
3 3 2 2 3 3 3 2 2 2 2 3 3 3 3 3 3 3 3 3 3 4 4 2 2 2 2 0 2 3 3 3 4 4 4 3 3 3 3 3 3 3 3
4 3 2 2 3 3 2 1 2 1 1 2 2 2 2 2 2 3 3 4 3 3 3 3 2 2 2 2 1 2 3 3 3 4 4 4 4 4 4 3 3 3 3
4 3 3 3 2 2 1 1 1 2 1 1 2 3 2 2 2 2 2 3 3 3 3 3 3 2 2 2 2 2 3 4 4 4 4 5 5 5 5 4 4 3 3
5 3 2 2 2 0 0 0 1 2 2 2 1 2 2 2 2 2 2 2 3 4 4 4 3 2 2 2 3 3 3 3 4 4 5 5 5 5 6 5 5 4 3
5 3 3 2 2 1 0 0 1 1 1 1 1 1 2 2 2 2 2 2 3 3 3 4 3 3 2 2 3 3 3 3 2 3 4 5 5 5 5 6 5 5 3
5 4 3 2 2 1 1 1 1 1 1 0 1 1 1 2 2 2 2 2 2 2 3 3 3 3 3 3 3 3 3 4 3 3 4 4 5 6 6 6 6 6 5
6 5 4 3 2 1 1 1 0 1 2 1 1 1 1 1 1 2 2 2 2 2 3 3 3 3 3 3 3 3 4 4 4 4 4 5 5 5 6 6 6 5 6
6 6 5 4 3 2 1 1 1 1 1 2 2 1 0 0 1 1 3 3 2 2 2 3 3 3 3 3 3 3 3 4 5 5 5 5 5 5 5 4 4 5 5
5 7 6 4 4 3 2 2 1 1 2 2 2 2 1 1 1 1 2 3 3 3 2 2 2 2 2 3 3 4 4 4 4 5 6 5 5 5 5 5 4 4 5
4 5 6 5 5 4 3 2 2 2 2 2 3 3 3 2 2 2 2 3 3 3 2 2 2 1 2 3 3 4 5 5 5 6 6 5 5 5 5 5 5 5 4
4 6 6 5 5 5 4 3 2 2 2 3 3 3 3 3 3 3 3 2 3 3 3 3 1 1 2 3 4 5 5 6 6 6 6 6 6 5 5 6 6 6 5
6 6 6 5 5 5 4 3 3 3 3 3 3 3 4 3 3 3 3 3 3 4 5 3 2 1 3 4 5 5 5 7 7 7 7 7 6 6 6 6 6 6 6
6 6 6 6 5 5 4 3 3 4 3 3 3 3 4 3 3 3 4 4 4 5 5 3 3 2 3 4 6 6 6 7 8 7 8 7 7 7 7 7 7 7 7
6 6 6 6 6 5 5 4 4 4 4 4 4 4 5 4 4 4 4 4 5 5 6 5 3 3 3 3 5 5 6 6 6 7 7 7 7 8 8 8 8 8 9
6 6 6 6 6 6 5 5 5 4 4 5 5 5 6 5 5 4 4 5 5 5 5 7 4 3 4 4 4 4 4 5 6 7 7 7 7 7 8 8 8 9 9
6 6 6 6 6 6 6 6 5 5 6 6 6 6 6 6 6 5 5 5 5 5 5 5 6 4 3 3 3 4 4 4 5 6 7 8 8 7 8 9 9 9 9
6 6 6 6 7 7 7 6 6 6 6 6 6 6 6 6 7 6 6 6 5 5 5 5 5 4 3 3 3 3 4 3 4 4 6 6 7 8 8 9 9 10 9
6 6 6 6 7 6 6 7 6 6 6 6 6 6 6 7 9 8 6 5 5 5 5 5 5 4 4 3 4 3 4 4 4 3 3 4 4 5 6 8 9 8 8
6 6 6 6 6 6 10 12 9 6 6 6 7 6 6 7 9 11 11 10 9 7 7 6 6 6 6 5 4 4 4 4 4 2 2 4 3 4 5 6 8 8 8
6 6 6 6 6 8 12 12 12 8 6 6 6 6 6 6 8 6 9 11 11 13 12 8 8 8 7 6 5 6 6 6 6 3 3 5 3 4 5 7 9 9 9
5 5 6 6 7 8 12 13 13 7 6 6 5 5 6 6 6 7 6 6 7 8 10 8 8 8 7 7 7 7 6 5 5 4 4 4 4 4 4 6 9 10 10
5 5 6 6 6 8 12 13 12 5 5 6 6 6 6 6 10 10 7 7 7 7 10 11 11 11 12 11 9 5 5 5 5 4 4 3 3 3 3 4 7 9 9
6 6 6 6 6 7 11 12 11 5 6 6 5 5 8 8 10 10 6 6 7 7 6 6 7 8 8 9 10 7 6 6 4 4 4 3 2 1 2 2 3 4 6
Wind_Direction
45 41 38 40 40 39 41 36 38 40 36 29 33 42 41 37 27 22 14 11 9 11 52 71 126 172 167 171 171 168 157 143 129 122 118 127 125 120 116 115 117 124 129
53 50 40 36 32 30 36 39 33 34 33 30 25 24 23 25 22 15 8 3 5 8 10 5 341 208 200 188 172 172 166 157 148 143 140 140 139 133 130 142 135 140 149
45 52 46 36 24 26 34 41 41 37 32 28 17 13 19 20 16 7 5 4 354 353 354 356 355 14 202 196 187 182 179 178 168 158 152 145 143 148 156 149 156 147 156
31 49 47 31 26 35 38 46 55 34 22 15 0 352 1 5 10 5 8 7 0 348 341 350 15 18 23 12 213 203 196 188 184 176 174 168 163 164 173 178 185 187 167
17 31 44 26 34 39 33 35 45 49 19 6 353 347 353 348 351 7 11 5 360 350 337 331 347 360 1 345 326 245 209 187 179 185 187 189 188 182 182 188 191 201 190
8 20 27 18 32 41 30 38 66 44 39 5 355 350 338 337 354 3 356 2 3 0 353 351 347 340 343 326 318 314 247 208 198 193 195 201 202 195 196 199 201 208 207
2 14 12 10 14 19 351 21 95 69 34 16 26 351 338 346 21 9 360 13 8 3 9 8 4 4 341 323 333 333 322 252 217 214 211 208 210 207 206 209 211 208 216
357 359 4 352 354 339 0 32 101 95 50 39 59 24 329 329 354 353 356 19 357 359 6 0 3 2 343 325 310 322 318 305 265 231 224 223 218 217 215 216 214 210 212
352 353 344 345 342 328 249 238 190 152 170 200 56 141 172 245 314 316 328 356 346 348 349 353 356 348 346 342 325 315 315 304 280 262 239 235 228 225 223 218 218 218 214
349 351 347 353 342 339 294 261 271 208 172 194 249 285 215 180 204 300 306 319 331 336 332 333 332 334 341 337 322 309 303 294 277 269 259 248 242 231 223 217 217 221 220
347 348 347 352 344 338 326 316 297 254 207 208 208 227 243 351 205 222 276 300 313 299 301 301 309 316 324 319 318 312 305 290 272 268 263 259 249 243 234 229 230 233 230
339 348 346 343 332 327 314 298 278 257 241 230 222 211 205 206 213 217 246 276 284 285 287 275 280 304 315 315 308 314 307 302 292 278 268 262 254 247 247 247 249 248 245
324 330 338 335 328 317 310 305 280 265 252 239 229 229 229 233 226 224 237 265 276 287 284 269 258 286 314 320 310 318 309 301 293 286 278 269 265 257 255 255 256 257 257
309 322 324 325 321 322 321 312 285 270 259 245 246 239 237 239 230 223 224 234 270 277 271 267 257 272 308 308 307 314 307 295 288 283 276 267 262 260 259 257 257 261 262
321 328 324 321 320 317 315 314 283 269 256 245 244 244 241 241 235 232 225 216 226 253 257 253 257 281 309 298 303 307 293 285 286 279 276 271 260 254 254 253 254 260 262
328 330 328 322 316 313 312 300 289 284 265 257 247 244 249 240 233 233 228 230 230 236 254 250 247 271 291 292 289 290 279 280 276 277 273 260 252 250 247 244 248 254 255
331 328 323 322 317 313 311 299 288 286 279 271 263 251 254 247 236 231 232 230 230 230 248 264 252 264 261 270 291 286 277 273 271 272 268 257 252 248 245 243 247 251 252
327 324 324 321 319 318 310 293 287 286 276 274 267 258 256 253 242 233 231 232 231 231 236 257 262 256 254 264 275 279 284 275 270 265 260 256 251 247 244 243 243 244 248
331 330 330 323 319 316 309 299 284 279 272 267 267 263 261 253 249 244 235 235 233 237 235 247 258 256 257 268 276 283 285 280 277 270 259 252 247 247 247 246 245 244 243
329 328 328 322 318 314 308 306 300 288 278 273 269 264 261 253 248 243 240 236 233 233 238 244 252 255 255 256 252 264 279 271 275 278 265 257 252 253 251 249 245 242 237
327 324 323 321 320 314 309 310 302 297 289 281 275 267 262 260 259 252 248 236 230 230 237 243 247 250 247 242 244 251 266 279 269 256 258 267 262 257 253 250 244 233 229
325 324 321 318 317 314 317 317 313 302 295 288 284 276 267 264 266 265 261 254 244 238 234 240 245 243 245 241 240 246 257 267 272 242 248 274 255 251 252 241 239 234 233
323 321 318 317 312 311 317 318 316 312 299 290 284 276 275 273 275 266 265 261 257 256 249 244 243 243 244 234 230 241 244 249 256 245 248 268 254 261 255 242 242 239 236
314 314 313 312 310 312 319 320 319 315 303 297 290 277 272 269 266 264 261 261 256 255 256 249 242 244 246 238 229 234 239 253 267 255 231 255 255 255 264 247 243 240 235
308 308 307 311 310 312 319 320 321 312 306 305 299 293 285 276 275 274 266 263 268 266 265 260 256 254 253 251 243 232 232 238 257 252 223 234 246 260 257 247 243 238 232
301 307 310 312 308 307 315 320 322 312 307 306 301 296 294 295 293 289 271 262 267 270 270 268 259 261 259 255 250 234 226 233 248 250 216 210 220 226 257 242 238 238 230
Height
1534 1534 1534 1534 1534 1535 1535 1535 1536 1536 1537 1537 1538 1538 1539 1539 1540 1541 1542 1543 1544 1545 1545 1546 1548 1548 1549 1550 1551 1552 1553 1554 1555 1556 1557 1558 1559 1560 1561 1562 1563 1564 1564
1532 1532 1532 1532 1532 1532 1533 1533 1533 1534 1535 1535 1536 1536 1537 1537 1538 1539 1540 1541 1542 1543 1543 1544 1545 1546 1547 1548 1549 1550 1551 1552 1553 1554 1555 1556 1557 1558 1560 1561 1561 1563 1563
1530 1530 1530 1530 1530 1530 1530 1531 1531 1532 1532 1533 1534 1534 1535 1535 1536 1536 1537 1538 1539 1540 1541 1542 1543 1544 1545 1546 1547 1548 1549 1550 1551 1552 1553 1554 1555 1556 1558 1559 1560 1561 1562
1528 1528 1528 1528 1528 1528 1528 1528 1529 1529 1530 1530 1531 1532 1532 1533 1533 1534 1534 1535 1536 1537 1538 1539 1540 1541 1542 1543 1545 1546 1547 1548 1549 1550 1551 1552 1553 1554 1555 1556 1558 1559 1560
1524 1525 1525 1525 1525 1525 1525 1526 1526 1526 1527 1527 1528 1529 1530 1530 1530 1531 1531 1532 1533 1534 1535 1536 1537 1538 1539 1541 1542 1543 1544 1545 1546 1547 1548 1549 1550 1551 1553 1554 1555 1557 1558
1521 1521 1521 1522 1522 1522 1523 1523 1523 1524 1524 1524 1525 1526 1526 1527 1527 1527 1528 1529 1530 1531 1532 1533 1534 1535 1537 1538 1539 1540 1541 1543 1543 1544 1545 1546 1548 1549 1550 1551 1553 1554 1555
1518 1518 1518 1518 1519 1519 1519 1519 1520 1521 1521 1522 1522 1522 1523 1524 1524 1524 1525 1526 1527 1528 1529 1530 1531 1532 1534 1535 1536 1537 1538 1539 1541 1542 1542 1543 1545 1546 1547 1548 1550 1551 1552
1515 1515 1515 1515 1515 1516 1516 1516 1517 1517 1518 1519 1520 1520 1520 1521 1520 1521 1522 1522 1524 1525 1526 1527 1528 1529 1530 1531 1532 1533 1534 1536 1537 1538 1539 1540 1542 1543 1544 1545 1546 1548 1549
1512 1511 1512 1512 1512 1512 1512 1513 1513 1514 1514 1516 1517 1518 1518 1517 1517 1518 1518 1519 1520 1521 1522 1523 1524 1525 1526 1527 1529 1530 1531 1532 1533 1535 1536 1537 1538 1539 1540 1541 1543 1545 1546
1508 1508 1508 1508 1508 1508 1509 1509 1510 1510 1511 1512 1514 1515 1516 1515 1516 1515 1516 1516 1517 1518 1519 1520 1520 1521 1522 1524 1525 1526 1527 1529 1530 1531 1532 1533 1535 1535 1536 1538 1539 1541 1542
1505 1504 1504 1504 1504 1505 1505 1506 1506 1507 1507 1508 1509 1510 1511 1512 1513 1513 1512 1513 1514 1514 1515 1516 1517 1518 1519 1520 1521 1522 1524 1525 1526 1527 1528 1529 1530 1531 1532 1534 1535 1537 1538
1501 1501 1501 1500 1501 1501 1501 1502 1502 1503 1504 1504 1505 1506 1507 1508 1508 1509 1509 1509 1509 1510 1511 1512 1513 1514 1515 1516 1517 1518 1520 1521 1522 1523 1524 1525 1526 1527 1528 1529 1531 1533 1534
1497 1497 1497 1497 1497 1497 1497 1498 1498 1499 1500 1501 1501 1502 1503 1504 1505 1506 1506 1506 1506 1506 1507 1508 1509 1510 1511 1512 1513 1514 1515 1516 1517 1519 1520 1521 1522 1523 1524 1525 1527 1528 1530
1493 1493 1493 1493 1493 1493 1493 1493 1494 1495 1495 1496 1497 1498 1499 1500 1501 1501 1502 1503 1503 1502 1502 1503 1504 1505 1507 1508 1508 1509 1510 1512 1513 1514 1515 1516 1517 1518 1519 1521 1521 1523 1525
1489 1489 1489 1489 1489 1489 1489 1489 1490 1490 1491 1492 1492 1493 1494 1495 1496 1497 1498 1499 1500 1499 1498 1499 1500 1501 1502 1503 1504 1504 1505 1506 1508 1509 1509 1510 1512 1513 1514 1515 1517 1518 1519
1486 1485 1485 1484 1484 1485 1485 1485 1486 1486 1486 1487 1488 1488 1489 1490 1491 1492 1493 1494 1495 1495 1494 1493 1495 1496 1497 1498 1499 1499 1500 1501 1502 1503 1504 1505 1506 1508 1509 1510 1511 1513 1514
1482 1482 1481 1480 1480 1480 1480 1480 1481 1481 1482 1482 1483 1483 1484 1485 1486 1486 1487 1488 1489 1489 1489 1488 1490 1491 1492 1492 1493 1494 1495 1495 1496 1497 1498 1499 1500 1502 1503 1505 1506 1507 1509
1479 1478 1477 1477 1476 1476 1476 1476 1476 1476 1477 1477 1478 1478 1479 1480 1481 1481 1482 1482 1483 1484 1484 1483 1484 1485 1486 1487 1487 1488 1489 1489 1490 1491 1492 1493 1494 1496 1497 1499 1500 1501 1503
1475 1475 1474 1473 1472 1472 1472 1471 1471 1471 1471 1472 1472 1473 1473 1474 1474 1475 1476 1477 1477 1478 1478 1478 1478 1479 1480 1481 1481 1482 1482 1483 1484 1485 1486 1487 1488 1489 1491 1492 1494 1495 1496
1472 1471 1470 1469 1469 1468 1468 1467 1467 1466 1466 1466 1466 1467 1467 1468 1469 1469 1470 1471 1471 1472 1472 1472 1472 1473 1473 1474 1475 1475 1476 1477 1477 1479 1480 1481 1482 1483 1485 1486 1487 1489 1490
1469 1468 1467 1466 1465 1464 1463 1463 1462 1462 1461 1461 1461 1461 1461 1462 1463 1464 1464 1465 1466 1466 1466 1466 1466 1467 1468 1469 1469 1470 1470 1470 1471 1472 1473 1474 1475 1477 1478 1479 1481 1482 1484
1466 1465 1464 1462 1461 1460 1459 1459 1458 1457 1456 1455 1455 1455 1455 1456 1456 1457 1458 1459 1460 1460 1460 1461 1460 1461 1462 1463 1464 1464 1465 1465 1465 1466 1467 1468 1469 1470 1471 1473 1474 1476 1477
1463 1461 1460 1459 1458 1457 1456 1454 1454 1452 1451 1450 1449 1449 1449 1449 1450 1451 1451 1452 1453 1454 1455 1455 1454 1455 1456 1457 1458 1458 1459 1459 1459 1460 1462 1461 1463 1463 1465 1467 1468 1470 1471
1459 1458 1457 1455 1454 1453 1452 1450 1449 1448 1446 1445 1444 1444 1444 1444 1444 1445 1445 1445 1445 1446 1447 1448 1448 1449 1451 1452 1452 1453 1453 1453 1454 1455 1456 1455 1456 1457 1459 1460 1462 1463 1465
1456 1454 1453 1452 1450 1449 1448 1447 1445 1443 1442 1440 1440 1439 1439 1439 1439 1440 1440 1439 1439 1439 1441 1441 1442 1442 1444 1445 1446 1447 1447 1448 1447 1448 1450 1450 1450 1451 1452 1453 1455 1457 1458
1452 1451 1449 1448 1446 1445 1444 1443 1442 1439 1438 1436 1435 1434 1434 1434 1434 1434 1434 1433 1433 1433 1434 1434 1435 1436 1437 1438 1439 1440 1441 1442 1441 1442 1443 1445 1445 1446 1445 1446 1449 1450 1452